Showing default

UMBRA-05, 55036

Orbit data source: Space-Track

UMBRA-05, 55036 is a payload satellite owned by Umbra Labs (US) in SSO that was launched on Tue, 03 Jan 2023 UTC via an FALCON 9 launch vehicle from the Air Force Eastern Test Range (AFETR). Payload-class satellites include a variety of spacecraft equipped with specific instruments for various scientific and technological missions. These include communications satellites like Starlink; space stations such as the ISS; scientific satellites like the Hubble; Earth observation satellites from companies like Planet Labs, Umbra, and HawkEye 360; GPS; miniature CubeSats for education and research; and military/defense satellites.

Loading next visibility...
Identifier
55036, 2023-001AD
Orbit
SSO
Country
Flag of USUS
Related business
Manufacturer
Umbra Labs
Mission
Operational Commercial Radar Imaging
Bus & Motor
UMBRA, Unknown motor
Mass
65 kg wet, 60 kg dry
Launch date (UTC)
2023-01-03 (3 years ago)
Launch vehicle
FALCON 9
Launch site
Air Force Eastern Test Range (AFETR)
Object type
Payload
Rocket body
Debris
Shape & HBR
Box + 2 Pan + 1 Dish, 1.9 m
Radar Cross Section
0.929 m², Large (>1 m²)

Expand to show TLE details & history
Last TLE update: 13 hours ago

TLE from 13 hours ago
0 UMBRA-05
1 55036U 23001AD  25258.44520084  .00230769  00000-0  38228-2 0  9996
2 55036  97.3588 317.1119 0005017 223.3830 136.7028 15.51322763149914
Epoch: 2025-09-15T10:41Z
TLE epoch observation values (Epoch: 2025-09-15T10:41:05.352Z)
Latitude
-0.00001°
Longitude
162.18985°
Altitude
418.478 km
Speed
7.659 km/s
True Right ascension
21h 08m 26s
True Declination
0° 00' 00"
Sunlit
Object was in full shadow at epoch
Visualization orbit readout
Latitude
Unknown
Longitude
Unknown
Altitude
Unknown
Speed
Unknown
Apparent Right ascension
Unknown
Apparent Declination
Unknown
Sunlit
N/A
Visualization observer readout
Local Sidereal Time
16:48:37
Azimuth
Unknown
Elevation
Unknown
Doppler factor
Unknown
Orbital elements
Apogee altitude
413.191 km
Perigee altitude
406.38 km
Semi-major axis
6,787.922 km
Eccentricity
0.0005
Inclination
97.3588°
RAAN
317.1119°
Arg. of periapsis
223.383°
True anomaly
136.74221°
Mean anomaly
136.7028°
Eccentric anomaly
136.72251°
Mean motion
3.88095 °/min
Orbital period
92.76 mins
BSTAR
0.0038228
Loading maneuver chart data...
Computing Atmospheric mass density...
Loading historical data...
Loading historical data...
Loading historical data...
Loading historical data...
Loading historical data...
Loading historical data...
Loading historical data...

Documentation

Showing up to 5 results
|